TimeEST,TemperatureF,Dew PointF,Humidity,Sea Level PressureIn,VisibilityMPH,Wind Direction,Wind SpeedMPH,Gust SpeedMPH,PrecipitationIn,Events,Conditions,WindDirDegrees,DateUTC
12:53 AM,70.0,68.0,93,30.22,10.0,Calm,Calm,-,N/A,,Clear,0,2013-01-05 05:53:00
1:53 AM,68.0,66.9,96,30.21,10.0,Calm,Calm,-,N/A,,Clear,0,2013-01-05 06:53:00
2:53 AM,68.0,66.0,93,30.20,10.0,North,3.5,-,N/A,,Partly Cloudy,360,2013-01-05 07:53:00
3:07 AM,68.0,66.2,94,30.20,10.0,North,3.5,-,N/A,,Mostly Cloudy,360,2013-01-05 08:07:00
3:53 AM,68.0,66.0,93,30.21,10.0,North,6.9,-,N/A,,Mostly Cloudy,360,2013-01-05 08:53:00
4:20 AM,68.0,66.2,94,30.20,10.0,North,9.2,-,N/A,,Overcast,360,2013-01-05 09:20:00
4:53 AM,66.9,66.0,97,30.21,10.0,North,6.9,-,N/A,,Overcast,360,2013-01-05 09:53:00
5:53 AM,68.0,66.0,93,30.22,10.0,North,6.9,-,N/A,,Overcast,350,2013-01-05 10:53:00
6:22 AM,68.0,66.2,94,30.23,10.0,North,4.6,-,N/A,,Overcast,350,2013-01-05 11:22:00
6:53 AM,68.0,66.0,93,30.24,10.0,North,8.1,-,N/A,,Overcast,360,2013-01-05 11:53:00
7:53 AM,68.0,66.0,93,30.25,10.0,North,6.9,-,N/A,,Mostly Cloudy,360,2013-01-05 12:53:00
8:10 AM,68.0,66.2,94,30.26,10.0,North,6.9,-,N/A,,Mostly Cloudy,10,2013-01-05 13:10:00
8:18 AM,69.8,66.2,88,30.26,10.0,North,6.9,-,N/A,,Mostly Cloudy,10,2013-01-05 13:18:00
8:47 AM,69.8,66.2,88,30.27,10.0,North,8.1,-,N/A,,Overcast,10,2013-01-05 13:47:00
8:53 AM,70.0,66.9,90,30.27,10.0,North,8.1,-,N/A,,Overcast,10,2013-01-05 13:53:00
9:05 AM,71.6,68.0,88,30.27,10.0,North,9.2,-,N/A,,Overcast,10,2013-01-05 14:05:00
9:31 AM,71.6,66.2,83,30.27,10.0,North,6.9,-,N/A,,Overcast,10,2013-01-05 14:31:00
9:45 AM,73.4,68.0,83,30.27,10.0,North,8.1,-,N/A,,Overcast,360,2013-01-05 14:45:00
9:53 AM,73.0,68.0,84,30.27,10.0,North,10.4,-,N/A,,Overcast,10,2013-01-05 14:53:00
10:12 AM,73.4,66.2,78,30.27,10.0,NNE,9.2,-,N/A,,Overcast,30,2013-01-05 15:12:00
10:19 AM,73.4,66.2,78,30.27,10.0,NNE,10.4,-,N/A,,Overcast,20,2013-01-05 15:19:00
10:53 AM,75.9,68.0,76,30.26,10.0,NNE,10.4,-,N/A,,Overcast,20,2013-01-05 15:53:00
11:53 AM,79.0,68.0,69,30.24,10.0,NNE,11.5,-,N/A,,Mostly Cloudy,20,2013-01-05 16:53:00
12:08 PM,77.0,68.0,74,30.23,10.0,NNE,10.4,-,N/A,,Mostly Cloudy,30,2013-01-05 17:08:00
12:53 PM,80.1,69.1,69,30.21,10.0,North,8.1,-,N/A,,Mostly Cloudy,360,2013-01-05 17:53:00
1:00 PM,78.8,68.0,69,30.20,10.0,NNE,8.1,-,N/A,,Mostly Cloudy,30,2013-01-05 18:00:00
1:14 PM,78.8,68.0,69,30.20,10.0,NE,5.8,-,N/A,,Mostly Cloudy,50,2013-01-05 18:14:00
1:31 PM,78.8,68.0,69,30.19,10.0,NE,8.1,-,N/A,,Mostly Cloudy,40,2013-01-05 18:31:00
1:53 PM,79.0,69.1,72,30.18,10.0,NE,5.8,-,N/A,,Mostly Cloudy,50,2013-01-05 18:53:00
2:53 PM,80.1,68.0,67,30.18,10.0,East,11.5,-,N/A,,Mostly Cloudy,100,2013-01-05 19:53:00
3:53 PM,78.1,68.0,71,30.19,10.0,East,10.4,-,N/A,,Mostly Cloudy,80,2013-01-05 20:53:00
4:48 PM,75.2,68.0,78,30.18,10.0,East,9.2,-,N/A,,Scattered Clouds,80,2013-01-05 21:48:00
4:53 PM,75.9,68.0,76,30.19,10.0,East,8.1,-,N/A,,Scattered Clouds,80,2013-01-05 21:53:00
5:53 PM,73.9,68.0,82,30.20,10.0,East,8.1,-,N/A,,Clear,80,2013-01-05 22:53:00
6:53 PM,72.0,66.9,84,30.21,10.0,NE,3.5,-,N/A,,Clear,50,2013-01-05 23:53:00
7:53 PM,71.1,66.9,87,30.22,10.0,Calm,Calm,-,N/A,,Clear,0,2013-01-06 00:53:00
8:53 PM,70.0,66.9,90,30.24,10.0,North,4.6,-,N/A,,Clear,360,2013-01-06 01:53:00
9:53 PM,69.1,66.0,90,30.24,10.0,NNE,4.6,-,N/A,,Clear,20,2013-01-06 02:53:00
10:53 PM,68.0,66.0,93,30.23,10.0,Calm,Calm,-,N/A,,Clear,0,2013-01-06 03:53:00
11:53 PM,68.0,66.0,93,30.22,10.0,Calm,Calm,-,N/A,,Clear,0,2013-01-06 04:53:00